This is the latest recevied weather packets stored in our database for station/object KQ4JKJ. If no packets are shown the sender has not sent any weather packets the latest 10 day(s).
| Time | Temp. | Humidity | Pressure | Rain* | Wind** | Luminosity | Snow |
|---|---|---|---|---|---|---|---|
| 1778010572 | 28.33° C | 50% | 1010.1 hPa | 0 mm | - | 555 W/m² | - |
| 1778010269 | 28.33° C | 50% | 1010.3 hPa | 0 mm | - | 560 W/m² | - |
| 1778009969 | 28.33° C | 53% | 1010.3 hPa | 0 mm | - | 569 W/m² | - |
| 1778009667 | 28.33° C | 51% | 1010.3 hPa | 0 mm | - | 584 W/m² | - |
| 1778009365 | 27.78° C | 51% | 1010.3 hPa | 0 mm | - | 606 W/m² | - |
| 1778009063 | 28.33° C | 51% | 1010.3 hPa | 0 mm | - | 634 W/m² | - |
| 1778008760 | 27.78° C | 50% | 1010.4 hPa | 0 mm | - | 634 W/m² | - |
| 1778008459 | 28.33° C | 52% | 1010.5 hPa | 0 mm | - | 639 W/m² | - |
| 1778008155 | 28.89° C | 52% | 1010.6 hPa | 0 mm | - | 647 W/m² | - |
| 1778007850 | 28.33° C | 50% | 1010.5 hPa | 0 mm | - | 661 W/m² | - |
| 1778007546 | 28.89° C | 47% | 1010.5 hPa | 0 mm | - | 670 W/m² | - |
| 1778007243 | 28.33° C | 51% | 1010.6 hPa | 0 mm | - | 679 W/m² | - |
| 1778006939 | 28.33° C | 52% | 1010.7 hPa | 0 mm | - | 688 W/m² | - |
| 1778006636 | 27.78° C | 54% | 1010.5 hPa | 0 mm | - | 700 W/m² | - |
| 1778006333 | 27.78° C | 53% | 1010.8 hPa | 0 mm | - | 707 W/m² | - |
| 1778006030 | 27.78° C | 53% | 1010.8 hPa | 0 mm | - | 712 W/m² | - |
| 1778005726 | 28.89° C | 54% | 1011 hPa | 0 mm | - | 725 W/m² | - |
| 1778005423 | 28.89° C | 52% | 1011.1 hPa | 0 mm | - | 739 W/m² | - |
| 1778005120 | 28.33° C | 54% | 1011.1 hPa | 0 mm | - | 750 W/m² | - |
| 1778004817 | 28.33° C | 54% | 1010.9 hPa | 0 mm | - | 749 W/m² | - |
| 1778004514 | 28.33° C | 55% | 1011.2 hPa | 0 mm | - | 733 W/m² | - |
| 1778004210 | 28.89° C | 54% | 1011.1 hPa | 0 mm | - | 742 W/m² | - |
| 1778003907 | 28.89° C | 54% | 1010.9 hPa | 0 mm | - | 691 W/m² | - |
| 1778003603 | 28.89° C | 53% | 1011.1 hPa | 0 mm | - | 765 W/m² | - |
| 1778003300 | 28.33° C | 54% | 1011 hPa | 0 mm | - | 764 W/m² | - |
* Rain latest hour (hover to see other rain measurements)
** Current wind speed in m/s (hover to see current wind gust speed)